Time,TemperatureF,DewpointF,PressureIn,WindDirection,WindDirectionDegrees,WindSpeedMPH,WindSpeedGustMPH,Humidity,HourlyPrecipIn,Conditions,Clouds,dailyrainin,SoftwareType,DateUTC
2013-01-28 00:00:00,20.0,14.0,30.42,West,276,0.0,2.0,77,0.00,,CLR,0.00,VWS V14.01,2013-01-28 05:00:00,
2013-01-28 00:01:00,20.0,14.3,30.42,West,276,0.0,2.0,78,0.00,,CLR,0.00,VWS V14.01,2013-01-28 05:01:00,
2013-01-28 00:03:00,19.9,14.2,30.42,West,276,0.0,0.0,78,0.00,,CLR,0.00,VWS V14.01,2013-01-28 05:03:00,
2013-01-28 00:08:00,20.0,14.6,30.42,West,276,0.0,0.0,79,0.00,,CLR,0.00,VWS V14.01,2013-01-28 05:08:00,
2013-01-28 00:13:00,20.2,14.7,30.42,West,276,0.0,0.0,79,0.00,,CLR,0.00,VWS V14.01,2013-01-28 05:13:00,
2013-01-28 00:18:00,20.3,14.8,30.42,West,276,0.0,0.0,79,0.00,,CLR,0.00,VWS V14.01,2013-01-28 05:18:00,
2013-01-28 00:23:00,20.5,15.0,30.42,West,276,0.0,0.0,79,0.00,,CLR,0.00,VWS V14.01,2013-01-28 05:23:00,
2013-01-28 00:28:00,20.6,15.1,30.42,West,276,0.0,0.0,79,0.00,,CLR,0.00,VWS V14.01,2013-01-28 05:28:00,
2013-01-28 00:33:00,21.0,15.5,30.42,West,276,0.0,0.0,79,0.00,,CLR,0.00,VWS V14.01,2013-01-28 05:33:00,
2013-01-28 00:38:00,21.1,15.6,30.41,West,276,0.0,0.0,79,0.00,,CLR,0.00,VWS V14.01,2013-01-28 05:38:00,
2013-01-28 00:43:00,21.3,15.8,30.41,West,276,0.0,0.0,79,0.00,,CLR,0.00,VWS V14.01,2013-01-28 05:43:00,
2013-01-28 00:48:00,21.4,15.9,30.41,West,276,0.0,0.0,79,0.00,,CLR,0.00,VWS V14.01,2013-01-28 05:48:00,
2013-01-28 00:53:00,21.6,16.1,30.41,West,276,0.0,0.0,79,0.00,,CLR,0.00,VWS V14.01,2013-01-28 05:53:00,
2013-01-28 00:58:00,21.6,16.1,30.41,West,276,0.0,0.0,79,0.00,,CLR,0.00,VWS V14.01,2013-01-28 05:58:00,
2013-01-28 01:03:00,21.8,16.6,30.41,West,276,0.0,0.0,80,0.00,,CLR,0.00,VWS V14.01,2013-01-28 06:03:00,
2013-01-28 01:08:00,21.8,16.6,30.40,West,276,0.0,0.0,80,0.00,,CLR,0.00,VWS V14.01,2013-01-28 06:08:00,
2013-01-28 01:13:00,21.8,16.6,30.40,West,276,0.0,0.0,80,0.00,,CLR,0.00,VWS V14.01,2013-01-28 06:13:00,
2013-01-28 01:18:00,21.8,16.9,30.40,West,276,0.0,0.0,81,0.00,,CLR,0.00,VWS V14.01,2013-01-28 06:18:00,
2013-01-28 01:23:00,21.8,16.9,30.39,West,276,0.0,0.0,81,0.00,,CLR,0.00,VWS V14.01,2013-01-28 06:23:00,
2013-01-28 01:28:00,21.8,16.9,30.39,West,276,0.0,0.0,81,0.00,,CLR,0.00,VWS V14.01,2013-01-28 06:28:00,
2013-01-28 01:33:00,21.8,16.9,30.39,West,276,0.0,0.0,81,0.00,,CLR,0.00,VWS V14.01,2013-01-28 06:33:00,
2013-01-28 01:38:00,21.9,17.0,30.38,West,276,0.0,0.0,81,0.00,,CLR,0.00,VWS V14.01,2013-01-28 06:38:00,
2013-01-28 01:43:00,22.1,17.5,30.38,West,276,0.0,1.0,82,0.00,,CLR,0.00,VWS V14.01,2013-01-28 06:43:00,
2013-01-28 01:48:00,22.2,17.5,30.38,West,276,0.0,0.0,82,0.00,,CLR,0.00,VWS V14.01,2013-01-28 06:48:00,
2013-01-28 01:53:00,22.2,17.3,30.38,West,276,0.0,0.0,81,0.00,,CLR,0.00,VWS V14.01,2013-01-28 06:53:00,
2013-01-28 01:58:00,22.2,17.3,30.38,West,276,0.0,0.0,81,0.00,,CLR,0.00,VWS V14.01,2013-01-28 06:58:00,
2013-01-28 02:03:00,22.2,17.0,30.38,West,276,0.0,0.0,80,0.00,,CLR,0.00,VWS V14.01,2013-01-28 07:03:00,
2013-01-28 02:08:00,22.5,17.3,30.38,West,276,0.0,0.0,80,0.00,,CLR,0.00,VWS V14.01,2013-01-28 07:08:00,
2013-01-28 02:13:00,22.7,17.8,30.38,West,276,0.0,0.0,81,0.00,,CLR,0.00,VWS V14.01,2013-01-28 07:13:00,
2013-01-28 02:18:00,22.9,18.0,30.38,West,276,0.0,0.0,81,0.00,,CLR,0.00,VWS V14.01,2013-01-28 07:18:00,
2013-01-28 02:23:00,22.9,17.7,30.37,West,276,0.0,0.0,80,0.00,,CLR,0.00,VWS V14.01,2013-01-28 07:23:00,
2013-01-28 02:28:00,22.9,17.4,30.37,West,276,0.0,0.0,79,0.00,,CLR,0.00,VWS V14.01,2013-01-28 07:28:00,
2013-01-28 02:33:00,22.7,17.2,30.37,West,276,0.0,0.0,79,0.00,,CLR,0.00,VWS V14.01,2013-01-28 07:33:00,
2013-01-28 02:38:00,22.7,16.9,30.37,West,276,0.0,0.0,78,0.00,,CLR,0.00,VWS V14.01,2013-01-28 07:38:00,
2013-01-28 02:43:00,22.5,16.7,30.37,West,276,0.0,0.0,78,0.00,,CLR,0.00,VWS V14.01,2013-01-28 07:43:00,
2013-01-28 02:48:00,22.4,16.6,30.37,West,276,0.0,0.0,78,0.00,,CLR,0.00,VWS V14.01,2013-01-28 07:48:00,
2013-01-28 02:53:00,22.2,16.7,30.36,West,276,0.0,0.0,79,0.00,,CLR,0.00,VWS V14.01,2013-01-28 07:53:00,
2013-01-28 02:58:00,22.2,16.7,30.36,West,276,0.0,0.0,79,0.00,,CLR,0.00,VWS V14.01,2013-01-28 07:58:00,
2013-01-28 03:03:00,22.2,17.0,30.36,West,276,0.0,0.0,80,0.00,,CLR,0.00,VWS V14.01,2013-01-28 08:03:00,
2013-01-28 03:08:00,22.4,17.2,30.36,West,276,0.0,0.0,80,0.00,,CLR,0.00,VWS V14.01,2013-01-28 08:08:00,
2013-01-28 03:13:00,22.7,17.8,30.36,West,276,0.0,0.0,81,0.00,,CLR,0.00,VWS V14.01,2013-01-28 08:13:00,
2013-01-28 03:18:00,22.9,18.2,30.36,West,276,0.0,0.0,82,0.00,,CLR,0.00,VWS V14.01,2013-01-28 08:18:00,
2013-01-28 03:23:00,23.2,18.5,30.36,West,276,0.0,0.0,82,0.00,,CLR,0.00,VWS V14.01,2013-01-28 08:23:00,
2013-01-28 03:28:00,23.3,18.6,30.36,West,276,0.0,0.0,82,0.00,,CLR,0.00,VWS V14.01,2013-01-28 08:28:00,
2013-01-28 03:33:00,23.6,19.2,30.36,West,276,0.0,0.0,83,0.00,,CLR,0.00,VWS V14.01,2013-01-28 08:33:00,
2013-01-28 03:39:00,23.8,19.1,30.35,West,276,0.0,1.0,82,0.00,,CLR,0.00,VWS V14.01,2013-01-28 08:39:00,
2013-01-28 03:44:00,23.9,19.2,30.35,West,276,0.0,0.0,82,0.00,,CLR,0.00,VWS V14.01,2013-01-28 08:44:00,
2013-01-28 03:49:00,23.9,19.2,30.35,West,276,0.0,1.0,82,0.00,,CLR,0.00,VWS V14.01,2013-01-28 08:49:00,
2013-01-28 03:54:00,23.8,18.8,30.35,West,276,0.0,0.0,81,0.00,,CLR,0.00,VWS V14.01,2013-01-28 08:54:00,
2013-01-28 03:59:00,23.9,18.9,30.35,West,276,0.0,0.0,81,0.00,,CLR,0.00,VWS V14.01,2013-01-28 08:59:00,
2013-01-28 04:04:00,23.9,18.9,30.35,West,276,0.0,0.0,81,0.00,,CLR,0.00,VWS V14.01,2013-01-28 09:04:00,
2013-01-28 04:09:00,23.9,18.9,30.34,West,276,0.0,0.0,81,0.00,,CLR,0.00,VWS V14.01,2013-01-28 09:09:00,
2013-01-28 04:14:00,23.9,18.6,30.34,West,276,0.0,0.0,80,0.00,,CLR,0.00,VWS V14.01,2013-01-28 09:14:00,
2013-01-28 04:19:00,24.1,19.1,30.34,West,276,0.0,0.0,81,0.00,,CLR,0.00,VWS V14.01,2013-01-28 09:19:00,
2013-01-28 04:24:00,24.2,18.9,30.35,West,276,0.0,0.0,80,0.00,,CLR,0.00,VWS V14.01,2013-01-28 09:24:00,
2013-01-28 04:29:00,24.2,18.9,30.35,West,276,0.0,0.0,80,0.00,,CLR,0.00,VWS V14.01,2013-01-28 09:29:00,
2013-01-28 04:34:00,24.4,19.1,30.35,West,276,0.0,0.0,80,0.00,,CLR,0.00,VWS V14.01,2013-01-28 09:34:00,
2013-01-28 04:39:00,24.4,19.1,30.33,West,276,0.0,0.0,80,0.00,,CLR,0.00,VWS V14.01,2013-01-28 09:39:00,
2013-01-28 04:44:00,24.5,19.2,30.33,West,276,0.0,0.0,80,0.00,,CLR,0.00,VWS V14.01,2013-01-28 09:44:00,
2013-01-28 04:49:00,24.5,19.2,30.33,West,276,0.0,0.0,80,0.00,,CLR,0.00,VWS V14.01,2013-01-28 09:49:00,
2013-01-28 04:54:00,24.7,19.4,30.33,West,276,0.0,0.0,80,0.00,,CLR,0.00,VWS V14.01,2013-01-28 09:54:00,
2013-01-28 04:59:00,24.7,19.4,30.33,West,276,1.0,1.0,80,0.00,,CLR,0.00,VWS V14.01,2013-01-28 09:59:00,
2013-01-28 05:04:00,24.8,19.5,30.33,West,276,0.0,1.0,80,0.00,,CLR,0.00,VWS V14.01,2013-01-28 10:04:00,
2013-01-28 05:09:00,24.8,19.2,30.31,North,358,0.0,1.0,79,0.00,,CLR,0.00,VWS V14.01,2013-01-28 10:09:00,
2013-01-28 05:13:00,24.8,19.5,30.31,North,358,0.0,0.0,80,0.00,,CLR,0.00,VWS V14.01,2013-01-28 10:13:00,
2013-01-28 05:18:00,24.8,19.5,30.31,North,358,1.0,2.0,80,0.00,,CLR,0.00,VWS V14.01,2013-01-28 10:18:00,
2013-01-28 05:23:00,24.8,19.2,30.31,North,358,0.0,1.0,79,0.00,,CLR,0.00,VWS V14.01,2013-01-28 10:23:00,
2013-01-28 05:28:00,24.8,19.2,30.31,North,358,0.0,0.0,79,0.00,,CLR,0.00,VWS V14.01,2013-01-28 10:28:00,
2013-01-28 05:34:00,25.1,19.5,30.31,North,358,0.0,0.0,79,0.00,,CLR,0.00,VWS V14.01,2013-01-28 10:34:00,
2013-01-28 05:39:00,25.1,19.5,30.32,North,358,0.0,0.0,79,0.00,,CLR,0.00,VWS V14.01,2013-01-28 10:39:00,
2013-01-28 05:44:00,25.3,19.7,30.32,North,358,0.0,0.0,79,0.00,,CLR,0.00,VWS V14.01,2013-01-28 10:44:00,
2013-01-28 05:49:00,25.4,19.5,30.32,North,358,0.0,0.0,78,0.00,,CLR,0.00,VWS V14.01,2013-01-28 10:49:00,
2013-01-28 05:54:00,25.6,19.4,30.32,North,358,0.0,0.0,77,0.00,,CLR,0.00,VWS V14.01,2013-01-28 10:54:00,
2013-01-28 05:59:00,25.8,19.6,30.32,North,358,0.0,0.0,77,0.00,,CLR,0.00,VWS V14.01,2013-01-28 10:59:00,
2013-01-28 06:04:00,26.0,19.8,30.32,North,358,0.0,0.0,77,0.00,,CLR,0.00,VWS V14.01,2013-01-28 11:04:00,
2013-01-28 06:09:00,26.1,20.2,30.32,North,358,0.0,0.0,78,0.00,,CLR,0.00,VWS V14.01,2013-01-28 11:09:00,
2013-01-28 06:14:00,26.3,20.1,30.32,North,358,0.0,0.0,77,0.00,,CLR,0.00,VWS V14.01,2013-01-28 11:14:00,
2013-01-28 06:19:00,26.4,20.2,30.32,North,358,0.0,0.0,77,0.00,,CLR,0.00,VWS V14.01,2013-01-28 11:19:00,
2013-01-28 06:24:00,26.4,20.2,30.32,North,358,0.0,0.0,77,0.00,,CLR,0.00,VWS V14.01,2013-01-28 11:24:00,
2013-01-28 06:29:00,26.6,20.4,30.32,North,358,0.0,0.0,77,0.00,,CLR,0.00,VWS V14.01,2013-01-28 11:29:00,
2013-01-28 06:34:00,26.6,20.4,30.32,North,358,0.0,0.0,77,0.00,,CLR,0.00,VWS V14.01,2013-01-28 11:34:00,
2013-01-28 06:39:00,26.6,20.4,30.32,North,358,0.0,0.0,77,0.00,,CLR,0.00,VWS V14.01,2013-01-28 11:39:00,
2013-01-28 06:44:00,26.6,20.4,30.32,North,358,0.0,0.0,77,0.00,,CLR,0.00,VWS V14.01,2013-01-28 11:44:00,
2013-01-28 06:49:00,26.6,20.4,30.32,North,358,0.0,0.0,77,0.00,,CLR,0.00,VWS V14.01,2013-01-28 11:49:00,
2013-01-28 06:54:00,26.6,20.7,30.32,North,358,0.0,0.0,78,0.00,,CLR,0.00,VWS V14.01,2013-01-28 11:54:00,
2013-01-28 06:59:00,26.6,20.7,30.32,North,358,0.0,0.0,78,0.00,,CLR,0.00,VWS V14.01,2013-01-28 11:59:00,
2013-01-28 07:04:00,26.6,20.7,30.32,North,358,1.0,1.0,78,0.00,,CLR,0.00,VWS V14.01,2013-01-28 12:04:00,
2013-01-28 07:09:00,26.6,21.0,30.31,North,358,0.0,0.0,79,0.00,,CLR,0.00,VWS V14.01,2013-01-28 12:09:00,
2013-01-28 07:14:00,26.6,21.0,30.31,North,358,0.0,0.0,79,0.00,,CLR,0.00,VWS V14.01,2013-01-28 12:14:00,
2013-01-28 07:19:00,26.4,20.5,30.31,North,358,0.0,0.0,78,0.00,,CLR,0.00,VWS V14.01,2013-01-28 12:19:00,
2013-01-28 07:24:00,26.4,20.5,30.31,North,358,0.0,0.0,78,0.00,,CLR,0.00,VWS V14.01,2013-01-28 12:24:00,
2013-01-28 07:29:00,26.4,20.5,30.31,North,358,0.0,0.0,78,0.00,,CLR,0.00,VWS V14.01,2013-01-28 12:29:00,
2013-01-28 07:34:00,26.6,21.0,30.31,North,358,0.0,0.0,79,0.00,,CLR,0.00,VWS V14.01,2013-01-28 12:34:00,
2013-01-28 07:39:00,26.6,21.0,30.31,North,358,0.0,0.0,79,0.00,,CLR,0.00,VWS V14.01,2013-01-28 12:39:00,
2013-01-28 07:44:00,26.7,21.4,30.31,North,358,0.0,0.0,80,0.00,,CLR,0.00,VWS V14.01,2013-01-28 12:44:00,
2013-01-28 07:49:00,27.0,21.7,30.31,North,358,0.0,0.0,80,0.00,,CLR,0.00,VWS V14.01,2013-01-28 12:49:00,
2013-01-28 07:54:00,27.2,22.1,30.31,North,356,0.0,0.0,81,0.00,,CLR,0.00,VWS V14.01,2013-01-28 12:54:00,
2013-01-28 07:59:00,27.5,22.7,30.31,North,356,0.0,0.0,82,0.00,,CLR,0.00,VWS V14.01,2013-01-28 12:59:00,
2013-01-28 08:04:00,27.6,22.8,30.31,NNW,345,0.0,1.0,82,0.00,,CLR,0.00,VWS V14.01,2013-01-28 13:04:00,
2013-01-28 08:09:00,27.8,23.0,30.31,NNW,345,0.0,1.0,82,0.00,,CLR,0.00,VWS V14.01,2013-01-28 13:09:00,
2013-01-28 08:14:00,27.9,23.4,30.31,West,278,0.0,0.0,83,0.00,,CLR,0.00,VWS V14.01,2013-01-28 13:14:00,
2013-01-28 08:19:00,28.1,23.9,30.31,SW,233,0.0,0.0,84,0.00,,CLR,0.00,VWS V14.01,2013-01-28 13:19:00,
2013-01-28 08:24:00,28.2,24.0,30.31,SW,218,2.0,3.0,84,0.00,,CLR,0.00,VWS V14.01,2013-01-28 13:24:00,
2013-01-28 08:29:00,28.4,24.5,30.31,SW,218,0.0,0.0,85,0.00,,CLR,0.00,VWS V14.01,2013-01-28 13:29:00,
2013-01-28 08:34:00,28.5,24.6,30.31,SW,217,0.0,4.0,85,0.00,,CLR,0.00,VWS V14.01,2013-01-28 13:34:00,
2013-01-28 08:39:00,28.7,25.0,30.31,SSW,205,3.0,3.0,86,0.00,,CLR,0.00,VWS V14.01,2013-01-28 13:39:00,
2013-01-28 08:40:00,28.8,25.1,30.31,SSE,158,0.0,1.0,86,0.00,,,0.00,VWS V14.01,2013-01-28 13:40:00,
2013-01-28 08:45:00,29.0,25.6,30.29,SSW,202,0.0,4.0,87,0.00,,,0.00,VWS V14.01,2013-01-28 13:45:00,
2013-01-28 08:50:00,29.0,25.6,30.29,SSW,202,0.0,1.0,87,0.00,,,0.00,VWS V14.01,2013-01-28 13:50:00,
2013-01-28 09:00:00,29.4,26.0,30.27,SSW,202,1.0,6.0,87,0.00,,,0.00,VWS V14.01,2013-01-28 14:00:00,
2013-01-28 09:05:00,29.5,26.4,30.27,SSW,202,0.0,4.0,88,0.00,,,0.00,VWS V14.01,2013-01-28 14:05:00,
2013-01-28 09:10:00,29.7,26.6,30.27,South,180,1.0,5.0,88,0.00,,,0.00,VWS V14.01,2013-01-28 14:10:00,
2013-01-28 09:15:00,29.8,26.7,30.26,SSW,202,1.0,5.0,88,0.00,,,0.00,VWS V14.01,2013-01-28 14:15:00,
2013-01-28 09:20:00,30.0,26.9,30.26,SSE,158,1.0,4.0,88,0.00,,,0.00,VWS V14.01,2013-01-28 14:20:00,
2013-01-28 09:25:00,30.1,27.3,30.26,SSW,202,2.0,6.0,89,0.00,,,0.00,VWS V14.01,2013-01-28 14:25:00,
2013-01-28 09:30:00,30.3,27.2,30.25,SW,225,2.0,7.0,88,0.00,,,0.00,VWS V14.01,2013-01-28 14:30:00,
2013-01-28 09:35:00,30.4,27.3,30.25,SW,225,1.0,7.0,88,0.00,,,0.00,VWS V14.01,2013-01-28 14:35:00,
2013-01-28 09:40:00,30.6,27.5,30.25,WSW,248,1.0,5.0,88,0.00,,,0.00,VWS V14.01,2013-01-28 14:40:00,
2013-01-28 09:45:00,30.9,27.8,30.27,SW,225,1.0,5.0,88,0.00,,,0.00,VWS V14.01,2013-01-28 14:45:00,
2013-01-28 09:50:00,31.0,27.9,30.27,SW,225,4.0,11.0,88,0.00,,,0.00,VWS V14.01,2013-01-28 14:50:00,
2013-01-28 09:55:00,31.2,28.1,30.27,WSW,248,1.0,8.0,88,0.00,,,0.00,VWS V14.01,2013-01-28 14:55:00,
2013-01-28 10:00:00,31.3,28.2,30.26,SW,225,1.0,6.0,88,0.00,,,0.00,VWS V14.01,2013-01-28 15:00:00,
2013-01-28 10:05:00,31.5,28.4,30.26,SW,225,3.0,8.0,88,0.00,,,0.00,VWS V14.01,2013-01-28 15:05:00,
2013-01-28 10:10:00,31.6,28.5,30.26,South,180,1.0,6.0,88,0.00,,,0.00,VWS V14.01,2013-01-28 15:10:00,
2013-01-28 10:15:00,31.8,28.7,30.26,SW,225,3.0,10.0,88,0.00,,,0.00,VWS V14.01,2013-01-28 15:15:00,
2013-01-28 10:20:00,31.8,28.7,30.26,SW,225,3.0,9.0,88,0.00,,,0.00,VWS V14.01,2013-01-28 15:20:00,
2013-01-28 10:25:00,31.9,28.8,30.26,WSW,248,4.0,8.0,88,0.00,,,0.00,VWS V14.01,2013-01-28 15:25:00,
2013-01-28 10:30:00,31.9,28.5,30.25,SW,225,4.0,9.0,87,0.00,,,0.00,VWS V14.01,2013-01-28 15:30:00,
2013-01-28 10:35:00,32.1,29.0,30.25,South,180,2.0,10.0,88,0.00,,,0.00,VWS V14.01,2013-01-28 15:35:00,
2013-01-28 10:40:00,32.1,28.7,30.25,SSW,202,3.0,12.0,87,0.00,,,0.00,VWS V14.01,2013-01-28 15:40:00,
2013-01-28 10:54:00,32.1,28.7,30.23,SSE,161,4.0,4.0,87,0.00,,,0.00,VWS V14.01,2013-01-28 15:54:00,
2013-01-28 10:59:00,32.1,28.7,30.23,SW,224,4.0,7.0,87,0.00,,,0.00,VWS V14.01,2013-01-28 15:59:00,
2013-01-28 11:04:00,32.1,29.0,30.23,West,266,4.0,5.0,88,0.00,,,0.00,VWS V14.01,2013-01-28 16:04:00,
2013-01-28 11:09:00,32.1,29.0,30.23,WSW,243,0.0,4.0,88,0.00,,,0.00,VWS V14.01,2013-01-28 16:09:00,
2013-01-28 11:14:00,32.1,29.0,30.23,SSE,163,2.0,5.0,88,0.00,,,0.00,VWS V14.01,2013-01-28 16:14:00,
2013-01-28 11:19:00,32.1,29.0,30.23,SSW,194,0.0,5.0,88,0.00,,,0.00,VWS V14.01,2013-01-28 16:19:00,
2013-01-28 11:24:00,32.1,29.0,30.20,SW,218,0.0,6.0,88,0.00,,,0.00,VWS V14.01,2013-01-28 16:24:00,
2013-01-28 11:29:00,32.2,29.0,30.20,SSW,212,0.0,6.0,88,0.00,,,0.00,VWS V14.01,2013-01-28 16:29:00,
2013-01-28 11:34:00,32.2,29.0,30.20,West,259,0.0,0.0,88,0.00,,,0.00,VWS V14.01,2013-01-28 16:34:00,
2013-01-28 11:39:00,32.2,29.0,30.19,South,188,6.0,8.0,88,0.00,,,0.00,VWS V14.01,2013-01-28 16:39:00,
2013-01-28 11:44:00,32.2,29.0,30.19,South,186,2.0,5.0,88,0.00,,,0.00,VWS V14.01,2013-01-28 16:44:00,
2013-01-28 11:49:00,32.4,29.2,30.19,SSW,205,7.0,7.0,88,0.00,,,0.00,VWS V14.01,2013-01-28 16:49:00,
2013-01-28 11:54:00,32.4,29.2,30.18,SSW,193,2.0,6.0,88,0.00,,,0.00,VWS V14.01,2013-01-28 16:54:00,
2013-01-28 11:59:00,32.4,29.2,30.18,SW,226,3.0,12.0,88,0.00,,,0.00,VWS V14.01,2013-01-28 16:59:00,
2013-01-28 12:04:00,32.4,29.2,30.18,SW,214,1.0,6.0,88,0.00,,,0.00,VWS V14.01,2013-01-28 17:04:00,
2013-01-28 12:09:00,32.4,29.2,30.16,SSW,203,1.0,2.0,88,0.00,,,0.00,VWS V14.01,2013-01-28 17:09:00,
2013-01-28 12:14:00,32.4,29.2,30.16,WSW,242,5.0,7.0,88,0.00,,,0.00,VWS V14.01,2013-01-28 17:14:00,
2013-01-28 12:19:00,32.4,29.2,30.16,SSW,208,8.0,8.0,88,0.00,,,0.00,VWS V14.01,2013-01-28 17:19:00,
2013-01-28 12:24:00,32.4,29.2,30.15,SSW,208,2.0,6.0,88,0.00,,,0.00,VWS V14.01,2013-01-28 17:24:00,
2013-01-28 12:29:00,32.4,29.2,30.15,South,178,1.0,5.0,88,0.00,,,0.00,VWS V14.01,2013-01-28 17:29:00,
2013-01-28 12:34:00,32.4,29.5,30.15,South,184,5.0,5.0,89,0.00,,,0.00,VWS V14.01,2013-01-28 17:34:00,
2013-01-28 12:39:00,32.4,29.5,30.12,SSW,197,0.0,2.0,89,0.00,,,0.00,VWS V14.01,2013-01-28 17:39:00,
2013-01-28 12:44:00,32.4,29.5,30.12,SW,231,1.0,3.0,89,0.00,,,0.00,VWS V14.01,2013-01-28 17:44:00,
2013-01-28 12:49:00,32.4,29.8,30.12,SW,229,4.0,6.0,90,0.00,,,0.00,VWS V14.01,2013-01-28 17:49:00,
2013-01-28 12:54:00,32.4,29.8,30.12,West,261,4.0,4.0,90,0.00,,,0.00,VWS V14.01,2013-01-28 17:54:00,
2013-01-28 12:59:00,32.4,29.8,30.12,WSW,250,3.0,3.0,90,0.00,,,0.00,VWS V14.01,2013-01-28 17:59:00,
2013-01-28 13:04:00,32.4,29.8,30.12,WSW,253,0.0,0.0,90,0.00,,,0.00,VWS V14.01,2013-01-28 18:04:00,
2013-01-28 13:09:00,32.5,30.2,30.10,WSW,242,4.0,4.0,91,0.00,,,0.00,VWS V14.01,2013-01-28 18:09:00,
2013-01-28 13:14:00,32.5,30.2,30.10,SW,217,4.0,8.0,91,0.00,,,0.00,VWS V14.01,2013-01-28 18:14:00,
2013-01-28 13:19:00,32.5,30.2,30.10,SW,232,1.0,5.0,91,0.00,,,0.00,VWS V14.01,2013-01-28 18:19:00,
2013-01-28 13:24:00,32.5,30.2,30.09,SW,215,1.0,5.0,91,0.00,,,0.00,VWS V14.01,2013-01-28 18:24:00,
2013-01-28 13:29:00,32.7,30.4,30.09,SW,227,2.0,5.0,91,0.00,,,0.00,VWS V14.01,2013-01-28 18:29:00,
2013-01-28 13:34:00,32.7,30.6,30.09,SW,233,4.0,6.0,92,0.00,,,0.00,VWS V14.01,2013-01-28 18:34:00,
2013-01-28 13:39:00,32.7,30.6,30.08,WSW,246,2.0,4.0,92,0.00,,,0.00,VWS V14.01,2013-01-28 18:39:00,
2013-01-28 13:44:00,32.7,30.6,30.08,SW,229,2.0,3.0,92,0.00,,,0.00,VWS V14.01,2013-01-28 18:44:00,
2013-01-28 13:49:00,32.7,30.6,30.08,SW,226,0.0,6.0,92,0.00,,,0.00,VWS V14.01,2013-01-28 18:49:00,
2013-01-28 13:54:00,32.7,30.6,30.07,WSW,243,2.0,2.0,92,0.00,,,0.00,VWS V14.01,2013-01-28 18:54:00,
2013-01-28 13:59:00,32.7,30.6,30.07,WSW,243,2.0,6.0,92,0.00,,,0.00,VWS V14.01,2013-01-28 18:59:00,
2013-01-28 14:04:00,32.7,30.6,30.07,WSW,238,2.0,5.0,92,0.00,,,0.00,VWS V14.01,2013-01-28 19:04:00,
2013-01-28 14:09:00,32.7,30.6,30.06,SW,231,1.0,3.0,92,0.00,,,0.00,VWS V14.01,2013-01-28 19:09:00,
2013-01-28 14:14:00,32.7,30.6,30.06,SW,229,0.0,1.0,92,0.00,,,0.00,VWS V14.01,2013-01-28 19:14:00,
2013-01-28 14:19:00,32.7,30.6,30.06,SW,231,0.0,5.0,92,0.00,,,0.00,VWS V14.01,2013-01-28 19:19:00,
2013-01-28 14:24:00,32.7,30.6,30.05,WSW,245,1.0,3.0,92,0.00,,,0.00,VWS V14.01,2013-01-28 19:24:00,
2013-01-28 14:29:00,32.7,30.9,30.05,West,260,0.0,6.0,93,0.00,,,0.00,VWS V14.01,2013-01-28 19:29:00,
2013-01-28 14:34:00,32.7,30.9,30.05,SW,234,0.0,5.0,93,0.00,,,0.00,VWS V14.01,2013-01-28 19:34:00,
2013-01-28 14:39:00,32.7,30.9,30.05,SW,233,1.0,2.0,93,0.00,,,0.00,VWS V14.01,2013-01-28 19:39:00,
2013-01-28 14:44:00,32.7,30.9,30.05,SSW,211,0.0,2.0,93,0.00,,,0.00,VWS V14.01,2013-01-28 19:44:00,
2013-01-28 14:49:00,32.7,30.9,30.05,WSW,241,2.0,2.0,93,0.00,,,0.00,VWS V14.01,2013-01-28 19:49:00,
2013-01-28 14:54:00,32.7,30.9,30.04,SW,231,0.0,3.0,93,0.00,,,0.00,VWS V14.01,2013-01-28 19:54:00,
2013-01-28 14:59:00,32.7,30.9,30.04,West,260,1.0,5.0,93,0.00,,,0.00,VWS V14.01,2013-01-28 19:59:00,
2013-01-28 15:04:00,32.8,31.0,30.04,SSW,209,0.0,6.0,93,0.00,,,0.00,VWS V14.01,2013-01-28 20:04:00,
2013-01-28 15:09:00,32.8,31.0,30.04,SW,231,4.0,6.0,93,0.00,,,0.00,VWS V14.01,2013-01-28 20:09:00,
2013-01-28 15:14:00,32.8,31.0,30.04,West,264,5.0,5.0,93,0.00,,,0.00,VWS V14.01,2013-01-28 20:14:00,
2013-01-28 15:19:00,32.8,31.3,30.04,WSW,244,1.0,2.0,94,0.00,,,0.00,VWS V14.01,2013-01-28 20:19:00,
2013-01-28 15:24:00,32.8,31.3,30.03,West,266,3.0,4.0,94,0.00,,,0.00,VWS V14.01,2013-01-28 20:24:00,
2013-01-28 15:29:00,32.8,31.3,30.03,WSW,250,0.0,6.0,94,0.00,,,0.00,VWS V14.01,2013-01-28 20:29:00,
2013-01-28 15:34:00,32.8,31.3,30.03,SW,227,1.0,4.0,94,0.00,,,0.00,VWS V14.01,2013-01-28 20:34:00,
2013-01-28 15:39:00,32.8,31.3,30.02,West,259,2.0,6.0,94,0.00,,,0.00,VWS V14.01,2013-01-28 20:39:00,
2013-01-28 15:44:00,32.8,31.3,30.02,WSW,255,5.0,5.0,94,0.00,,,0.00,VWS V14.01,2013-01-28 20:44:00,
2013-01-28 15:49:00,32.8,31.3,30.02,West,262,4.0,4.0,94,0.00,,,0.00,VWS V14.01,2013-01-28 20:49:00,
2013-01-28 15:54:00,32.8,31.3,30.02,WSW,248,1.0,3.0,94,0.00,,,0.00,VWS V14.01,2013-01-28 20:54:00,
2013-01-28 15:59:00,32.8,31.3,30.02,SW,214,0.0,5.0,94,0.00,,,0.00,VWS V14.01,2013-01-28 20:59:00,
2013-01-28 16:04:00,32.8,31.3,30.02,WSW,248,0.0,0.0,94,0.00,,,0.00,VWS V14.01,2013-01-28 21:04:00,
2013-01-28 16:09:00,32.9,31.4,30.02,WSW,240,5.0,5.0,94,0.00,,,0.00,VWS V14.01,2013-01-28 21:09:00,
2013-01-28 16:14:00,32.8,31.5,30.02,SW,226,0.0,2.0,95,0.00,,,0.00,VWS V14.01,2013-01-28 21:14:00,
2013-01-28 16:19:00,32.8,31.5,30.02,WSW,253,0.0,5.0,95,0.00,,,0.00,VWS V14.01,2013-01-28 21:19:00,
2013-01-28 16:24:00,32.8,31.5,30.01,WSW,256,2.0,6.0,95,0.00,,,0.00,VWS V14.01,2013-01-28 21:24:00,
2013-01-28 16:29:00,32.8,31.5,30.01,WSW,245,4.0,8.0,95,0.00,,,0.00,VWS V14.01,2013-01-28 21:29:00,
2013-01-28 16:34:00,32.8,31.5,30.01,WSW,255,2.0,2.0,95,0.00,,,0.00,VWS V14.01,2013-01-28 21:34:00,
2013-01-28 16:39:00,32.8,31.5,30.01,West,266,1.0,2.0,95,0.00,,,0.00,VWS V14.01,2013-01-28 21:39:00,
2013-01-28 16:44:00,32.8,31.5,30.01,West,264,1.0,4.0,95,0.00,,,0.00,VWS V14.01,2013-01-28 21:44:00,
2013-01-28 16:49:00,32.8,31.5,30.01,WSW,248,2.0,4.0,95,0.00,,,0.00,VWS V14.01,2013-01-28 21:49:00,
2013-01-28 16:54:00,32.8,31.5,30.00,WSW,239,2.0,2.0,95,0.00,,,0.00,VWS V14.01,2013-01-28 21:54:00,
2013-01-28 16:59:00,32.8,31.5,30.00,WSW,255,5.0,5.0,95,0.00,,,0.00,VWS V14.01,2013-01-28 21:59:00,
2013-01-28 17:04:00,32.8,31.5,30.00,WSW,255,2.0,4.0,95,0.00,,,0.00,VWS V14.01,2013-01-28 22:04:00,
2013-01-28 17:09:00,32.8,31.5,29.99,West,263,4.0,5.0,95,0.00,,,0.00,VWS V14.01,2013-01-28 22:09:00,
2013-01-28 17:14:00,32.8,31.5,29.99,SW,231,2.0,4.0,95,0.00,,,0.00,VWS V14.01,2013-01-28 22:14:00,
2013-01-28 17:19:00,32.8,31.5,29.99,WSW,238,4.0,5.0,95,0.00,,,0.00,VWS V14.01,2013-01-28 22:19:00,
2013-01-28 17:24:00,32.8,31.5,29.99,West,262,0.0,6.0,95,0.00,,,0.00,VWS V14.01,2013-01-28 22:24:00,
2013-01-28 17:29:00,32.8,31.5,29.99,WSW,256,7.0,9.0,95,0.00,,,0.00,VWS V14.01,2013-01-28 22:29:00,
2013-01-28 17:34:00,32.9,31.6,29.99,SW,226,5.0,6.0,95,0.00,,,0.00,VWS V14.01,2013-01-28 22:34:00,
2013-01-28 17:39:00,32.9,31.6,29.99,WSW,250,6.0,6.0,95,0.00,,,0.00,VWS V14.01,2013-01-28 22:39:00,
2013-01-28 17:44:00,32.9,31.6,29.99,West,259,5.0,6.0,95,0.00,,,0.00,VWS V14.01,2013-01-28 22:44:00,
2013-01-28 17:49:00,32.9,31.6,29.99,West,272,6.0,7.0,95,0.00,,,0.00,VWS V14.01,2013-01-28 22:49:00,
2013-01-28 17:54:00,32.9,31.6,29.99,West,259,8.0,8.0,95,0.00,,,0.00,VWS V14.01,2013-01-28 22:54:00,
2013-01-28 17:59:00,32.9,31.6,29.99,WSW,237,4.0,4.0,95,0.00,,,0.00,VWS V14.01,2013-01-28 22:59:00,
2013-01-28 18:04:00,32.8,31.5,29.99,WSW,241,9.0,10.0,95,0.00,,,0.00,VWS V14.01,2013-01-28 23:04:00,
2013-01-28 18:09:00,32.9,31.9,29.98,West,281,6.0,7.0,96,0.00,,,0.00,VWS V14.01,2013-01-28 23:09:00,
2013-01-28 18:14:00,32.9,31.9,29.98,WSW,240,6.0,7.0,96,0.00,,,0.00,VWS V14.01,2013-01-28 23:14:00,
2013-01-28 18:19:00,32.9,31.9,29.98,West,264,5.0,5.0,96,0.00,,,0.00,VWS V14.01,2013-01-28 23:19:00,
2013-01-28 18:24:00,32.9,31.9,29.98,SW,226,2.0,3.0,96,0.00,,,0.00,VWS V14.01,2013-01-28 23:24:00,
2013-01-28 18:29:00,32.9,31.9,29.98,WSW,255,4.0,7.0,96,0.00,,,0.00,VWS V14.01,2013-01-28 23:29:00,
2013-01-28 18:34:00,32.9,31.9,29.98,West,266,4.0,6.0,96,0.00,,,0.00,VWS V14.01,2013-01-28 23:34:00,
2013-01-28 18:39:00,33.1,32.1,29.99,WSW,240,6.0,7.0,96,0.00,,,0.00,VWS V14.01,2013-01-28 23:39:00,
2013-01-28 18:44:00,33.1,32.1,29.99,West,260,0.0,2.0,96,0.00,,,0.00,VWS V14.01,2013-01-28 23:44:00,
2013-01-28 18:49:00,33.1,32.1,29.99,WSW,254,1.0,5.0,96,0.00,,,0.00,VWS V14.01,2013-01-28 23:49:00,
2013-01-28 18:54:00,33.1,32.1,29.99,West,269,6.0,6.0,96,0.00,,,0.00,VWS V14.01,2013-01-28 23:54:00,
2013-01-28 18:59:00,33.1,32.1,29.99,SW,235,4.0,5.0,96,0.00,,,0.00,VWS V14.01,2013-01-28 23:59:00,
2013-01-28 19:04:00,33.1,32.1,29.99,WSW,255,5.0,5.0,96,0.00,,,0.00,VWS V14.01,2013-01-29 00:04:00,
2013-01-28 19:09:00,33.1,32.1,29.99,SW,233,0.0,6.0,96,0.00,,,0.00,VWS V14.01,2013-01-29 00:09:00,
2013-01-28 19:14:00,33.1,32.1,29.99,SW,227,2.0,5.0,96,0.00,,,0.00,VWS V14.01,2013-01-29 00:14:00,
2013-01-28 19:19:00,33.2,32.2,29.99,WSW,248,1.0,5.0,96,0.00,,,0.00,VWS V14.01,2013-01-29 00:19:00,
2013-01-28 19:24:00,33.2,32.2,29.99,WSW,243,0.0,2.0,96,0.00,,,0.00,VWS V14.01,2013-01-29 00:24:00,
2013-01-28 19:29:00,33.2,32.2,29.99,WSW,238,3.0,4.0,96,0.00,,,0.00,VWS V14.01,2013-01-29 00:29:00,
2013-01-28 19:34:00,33.2,32.2,29.99,WSW,243,5.0,6.0,96,0.00,,,0.00,VWS V14.01,2013-01-29 00:34:00,
2013-01-28 19:39:00,33.4,32.4,29.99,West,271,6.0,6.0,96,0.00,,,0.00,VWS V14.01,2013-01-29 00:39:00,
2013-01-28 19:44:00,33.4,32.4,29.99,WSW,248,2.0,5.0,96,0.00,,,0.00,VWS V14.01,2013-01-29 00:44:00,
2013-01-28 19:49:00,33.4,32.4,29.99,WSW,242,2.0,5.0,96,0.00,,,0.00,VWS V14.01,2013-01-29 00:49:00,
2013-01-28 19:54:00,33.4,32.4,29.98,WSW,240,2.0,5.0,96,0.00,,,0.00,VWS V14.01,2013-01-29 00:54:00,
2013-01-28 19:59:00,33.4,32.4,29.98,WSW,245,5.0,6.0,96,0.00,,,0.00,VWS V14.01,2013-01-29 00:59:00,
2013-01-28 20:04:00,33.4,32.4,29.98,SW,236,1.0,5.0,96,0.00,,,0.00,VWS V14.01,2013-01-29 01:04:00,
2013-01-28 20:09:00,33.4,32.4,29.97,SW,227,2.0,4.0,96,0.00,,,0.00,VWS V14.01,2013-01-29 01:09:00,
2013-01-28 20:14:00,33.4,32.4,29.97,SW,231,4.0,4.0,96,0.00,,,0.00,VWS V14.01,2013-01-29 01:14:00,
2013-01-28 20:19:00,33.4,32.4,29.97,WSW,248,3.0,4.0,96,0.00,,,0.00,VWS V14.01,2013-01-29 01:19:00,
2013-01-28 20:24:00,33.4,32.4,29.96,WSW,242,0.0,1.0,96,0.00,,,0.00,VWS V14.01,2013-01-29 01:24:00,
2013-01-28 20:29:00,33.4,32.4,29.96,WSW,242,1.0,1.0,96,0.00,,,0.00,VWS V14.01,2013-01-29 01:29:00,
2013-01-28 20:34:00,33.5,32.7,29.96,SW,236,0.0,1.0,97,0.00,,,0.00,VWS V14.01,2013-01-29 01:34:00,
2013-01-28 20:39:00,33.5,32.7,29.97,WSW,238,0.0,1.0,97,0.00,,,0.00,VWS V14.01,2013-01-29 01:39:00,
2013-01-28 20:44:00,33.5,32.7,29.97,WSW,238,1.0,3.0,97,0.00,,,0.00,VWS V14.01,2013-01-29 01:44:00,
2013-01-28 20:49:00,33.5,32.7,29.97,WSW,239,1.0,2.0,97,0.00,,,0.00,VWS V14.01,2013-01-29 01:49:00,
2013-01-28 20:54:00,33.5,32.7,29.96,WSW,239,2.0,2.0,97,0.00,,,0.00,VWS V14.01,2013-01-29 01:54:00,
2013-01-28 20:59:00,33.4,32.6,29.96,WSW,239,0.0,1.0,97,0.00,,,0.00,VWS V14.01,2013-01-29 01:59:00,
2013-01-28 21:04:00,33.4,32.6,29.96,WSW,239,0.0,0.0,97,0.00,,,0.00,VWS V14.01,2013-01-29 02:04:00,
2013-01-28 21:09:00,33.4,32.6,29.96,WSW,239,0.0,2.0,97,0.00,,,0.00,VWS V14.01,2013-01-29 02:09:00,
2013-01-28 21:14:00,33.4,32.6,29.96,WSW,239,0.0,0.0,97,0.00,,,0.00,VWS V14.01,2013-01-29 02:14:00,
2013-01-28 21:19:00,33.4,32.6,29.96,WSW,239,0.0,0.0,97,0.00,,,0.00,VWS V14.01,2013-01-29 02:19:00,
2013-01-28 21:24:00,33.5,32.7,29.95,WSW,239,0.0,1.0,97,0.00,,,0.00,VWS V14.01,2013-01-29 02:24:00,
2013-01-28 21:29:00,33.5,32.7,29.95,WSW,239,1.0,1.0,97,0.00,,,0.00,VWS V14.01,2013-01-29 02:29:00,
2013-01-28 21:34:00,33.7,32.9,29.95,WSW,239,0.0,1.0,97,0.00,,,0.00,VWS V14.01,2013-01-29 02:34:00,
2013-01-28 21:39:00,33.7,32.9,29.95,WSW,238,0.0,1.0,97,0.00,,,0.00,VWS V14.01,2013-01-29 02:39:00,
2013-01-28 21:44:00,33.7,32.9,29.95,WSW,238,1.0,1.0,97,0.00,,,0.00,VWS V14.01,2013-01-29 02:44:00,
2013-01-28 21:49:00,33.7,32.9,29.95,WSW,238,2.0,2.0,97,0.00,,,0.00,VWS V14.01,2013-01-29 02:49:00,
2013-01-28 21:54:00,33.8,33.0,29.95,WSW,238,1.0,2.0,97,0.00,,,0.00,VWS V14.01,2013-01-29 02:54:00,
2013-01-28 21:59:00,33.8,33.0,29.95,WSW,243,0.0,2.0,97,0.00,,,0.00,VWS V14.01,2013-01-29 02:59:00,
2013-01-28 22:04:00,33.8,33.0,29.95,WSW,243,2.0,2.0,97,0.00,,,0.00,VWS V14.01,2013-01-29 03:04:00,
2013-01-28 22:09:00,34.0,33.2,29.95,WSW,244,0.0,0.0,97,0.00,,,0.00,VWS V14.01,2013-01-29 03:09:00,
2013-01-28 22:14:00,34.0,33.2,29.95,WSW,245,1.0,2.0,97,0.00,,,0.00,VWS V14.01,2013-01-29 03:14:00,
2013-01-28 22:19:00,34.0,33.2,29.95,WSW,245,3.0,4.0,97,0.00,,,0.00,VWS V14.01,2013-01-29 03:19:00,
2013-01-28 22:24:00,34.0,33.2,29.95,WSW,245,1.0,2.0,97,0.00,,,0.00,VWS V14.01,2013-01-29 03:24:00,
2013-01-28 22:29:00,34.0,33.2,29.95,WSW,245,2.0,3.0,97,0.00,,,0.00,VWS V14.01,2013-01-29 03:29:00,
2013-01-28 22:34:00,34.0,33.2,29.95,WSW,245,0.0,5.0,97,0.00,,,0.00,VWS V14.01,2013-01-29 03:34:00,
2013-01-28 22:39:00,34.0,33.2,29.94,WSW,245,1.0,2.0,97,0.00,,,0.00,VWS V14.01,2013-01-29 03:39:00,
2013-01-28 22:44:00,33.8,33.0,29.94,WSW,245,1.0,4.0,97,0.00,,,0.00,VWS V14.01,2013-01-29 03:44:00,
2013-01-28 22:49:00,34.0,33.2,29.94,WSW,249,0.0,5.0,97,0.00,,,0.00,VWS V14.01,2013-01-29 03:49:00,
2013-01-28 22:54:00,34.0,33.2,29.94,WSW,249,1.0,4.0,97,0.00,,,0.00,VWS V14.01,2013-01-29 03:54:00,
2013-01-28 22:59:00,34.0,33.2,29.94,WSW,249,2.0,4.0,97,0.00,,,0.00,VWS V14.01,2013-01-29 03:59:00,
2013-01-28 23:04:00,34.0,33.2,29.94,WSW,248,0.0,4.0,97,0.00,,,0.00,VWS V14.01,2013-01-29 04:04:00,
2013-01-28 23:09:00,34.0,33.2,29.95,WSW,248,0.0,0.0,97,0.00,,,0.00,VWS V14.01,2013-01-29 04:09:00,
2013-01-28 23:14:00,33.8,33.0,29.95,WSW,248,0.0,0.0,97,0.00,,,0.00,VWS V14.01,2013-01-29 04:14:00,
2013-01-28 23:19:00,33.8,33.0,29.95,WSW,248,3.0,3.0,97,0.00,,,0.00,VWS V14.01,2013-01-29 04:19:00,
2013-01-28 23:24:00,33.7,32.9,29.94,WSW,248,1.0,1.0,97,0.00,,,0.00,VWS V14.01,2013-01-29 04:24:00,
2013-01-28 23:29:00,33.7,32.9,29.94,WSW,248,0.0,1.0,97,0.00,,,0.00,VWS V14.01,2013-01-29 04:29:00,
2013-01-28 23:34:00,33.5,32.7,29.94,WSW,248,0.0,1.0,97,0.00,,,0.00,VWS V14.01,2013-01-29 04:34:00,
2013-01-28 23:39:00,33.5,32.7,29.95,WSW,248,1.0,1.0,97,0.00,,,0.00,VWS V14.01,2013-01-29 04:39:00,
2013-01-28 23:44:00,33.5,32.7,29.95,WSW,248,1.0,1.0,97,0.00,,,0.00,VWS V14.01,2013-01-29 04:44:00,
2013-01-28 23:49:00,33.4,32.6,29.95,WSW,248,2.0,2.0,97,0.00,,,0.00,VWS V14.01,2013-01-29 04:49:00,
2013-01-28 23:54:00,33.4,32.6,29.95,SW,219,0.0,1.0,97,0.00,,,0.00,VWS V14.01,2013-01-29 04:54:00,
2013-01-28 23:59:00,33.4,32.6,29.95,SW,219,0.0,1.0,97,0.00,,,0.00,VWS V14.01,2013-01-29 04:59:00,